KG5VSR Weather Reports


Display with metric or nautical units.
time (UTC)temp
F
wind
direction
speed
MPH
gust
MPH
rain 1hr
in
rain 24hr
in
rain mn
in
humidity
%
barometer
mb
20260901070913 86 165 1.0 2.0 0.00 0.00 0.00 62 1016.3
20260901063909 87 83 0.0 0.0 0.00 0.00 0.00 60 1016.3
20260901060907 87 104 1.0 2.0 0.00 0.00 0.00 58 1016.0
20260901053905 88 55 1.0 1.0 0.00 0.00 0.00 56 1015.9
20260901050903 87 344 0.0 1.0 0.00 0.00 0.00 55 1015.6
20260901043858 86 334 0.0 0.0 0.00 0.00 0.00 58 1015.5
20260901040856 85 299 0.0 0.0 0.00 0.00 0.00 60 1015.2
20260901033854 86 299 0.0 0.0 0.00 0.00 0.00 58 1015.2
20260901030854 87 299 0.0 0.0 0.00 0.00 0.00 53 1015.2
20260901023854 89 299 0.0 0.0 0.00 0.00 0.00 51 1014.7
20260901020849 90 336 0.0 0.0 0.00 0.00 0.00 48 1014.5
20260901013848 92 261 0.0 0.0 0.00 0.00 0.00 45 1014.1
20260901010848 94 202 0.0 1.0 0.00 0.00 0.00 42 1013.8
20260901003844 96 198 1.0 2.0 0.00 0.00 0.00 38 1013.6
20260901000840 98 316 0.0 0.0 0.00 0.00 0.00 37 1013.6
20260831233837 99 272 1.0 1.0 0.00 0.00 0.00 36 1013.7
20260831230835 99 58 1.0 1.0 0.00 0.00 0.00 35 1013.6
20260831223833 100 75 3.0 3.0 0.00 0.00 0.00 35 1013.8
20260831220829 100 339 0.0 1.0 0.00 0.00 0.00 37 1014.4
20260831213827 97 202 1.0 2.0 0.00 0.00 0.00 39 1014.5
20260831210826 98 275 0.0 0.0 0.00 0.00 0.00 38 1015.0
20260831203823 101 209 2.0 2.0 0.00 0.00 0.00 35 1015.1
20260831200818 102 69 3.0 6.0 0.00 0.00 0.00 37 1015.5
20260831193817 100 197 1.0 1.0 0.00 0.00 0.00 40 1015.8
20260831190814 99 148 8.0 13.0 0.00 0.00 0.00 39 1016.3
20260831183810 100 262 2.0 3.0 0.00 0.00 0.00 40 1016.6
20260831180806 99 56 2.0 2.0 0.00 0.00 0.00 40 1016.9
20260831173804 98 202 2.0 3.0 0.00 0.00 0.00 44 1017.5
20260831170800 96 271 0.0 1.0 0.00 0.00 0.00 49 1017.8
20260831163759 94 281 0.0 0.0 0.00 0.00 0.00 52 1018.0
20260831160755 93 183 5.0 6.0 0.00 0.00 0.00 53 1017.9
20260831153753 90 212 2.0 2.0 0.00 0.00 0.00 58 1017.9
20260831150753 89 266 1.0 1.0 0.00 0.00 0.00 64 1018.0
20260831143753 85 221 1.0 1.0 0.00 0.00 0.00 69 1017.8
20260831140752 84 153 2.0 2.0 0.00 0.00 0.00 72 1017.6
20260831133748 83 202 2.0 2.0 0.00 0.00 0.00 73 1017.4
20260831130747 82 200 1.0 1.0 0.00 0.00 0.00 74 1017.1
20260831123746 80 221 0.0 0.0 0.00 0.00 0.00 76 1016.4
20260831120744 79 248 0.0 0.0 0.00 0.00 0.00 79 1016.4
20260831113742 80 157 0.0 1.0 0.00 0.00 0.00 77 1015.9
20260831110742 80 149 2.0 3.0 0.00 0.00 0.00 75 1015.7
20260831103740 81 229 0.0 0.0 0.00 0.00 0.00 73 1015.9
20260831100741 81 216 0.0 0.0 0.00 0.00 0.00 72 1015.5
20260831093740 82 189 1.0 1.0 0.00 0.00 0.00 70 1015.7
20260831090740 83 207 0.0 0.0 0.00 0.00 0.00 67 1015.1
20260831083738 84 150 1.0 2.0 0.00 0.00 0.00 65 1015.2
20260831080737 84 213 1.0 2.0 0.00 0.00 0.00 62 1015.0
20260831073736 85 208 1.0 1.0 0.00 0.00 0.00 61 1015.0